Volver al catálogo

DMSP 5D-2 F11 DEB

ActivoSSO
NORAD 28322·DEBRIS·🇺🇸 United States

Lanzado Nov 28, 1991 desde Vandenberg Space Force Base

Loading…

Próximos Pases (próximas 24 horas)

TLE

ActualizadoSource: Space-Track

Época: Sep 11, 2026, 17:27 UTC

1 28322U 91082AK  26254.72756684  .00000597  00000-0  41774-3 0  9998
2 28322  98.5712 247.7887 0111425 345.1247 190.0562 13.99071250139311

Sigue DMSP 5D-2 F11 DEB en tiempo real con AllMySat

Download on the App Store